SCP
0 0 0 0 0 0 0 0 0 0 0 0 0 0 0 0 0 0 0 0 0 0 0 0 0 0 0 0 0 0 0 0 0 0 0 0 0 0 0 0 0 0 0 0
0 0 0 0 0 0 0 0 0 0 0 0 0 0 0 0 0 0 0 0 0 0 0 0 0 0 0 0 0 0 0 0 0 0 0 0 0 0 0 0 0 0 0 0
0 0 0 0 0 0 0 0 0 0 0 0 0 0 0 0 0 0 0 0 0 0 0 0 0 0 0 0 0 0 0 0 0 0 0 0 0 0 0 0 0 0 0 0
0 0 0 0 0 0 0 0 0 0 0 0 0 0 0 0 0 0 0 0 0 0 0 0 0 0 0 0 0 0 0 0 0 0 0 0 0 0 0 0 0 0 0 0
0 0 0 0 0 0 0 0 0 0 0 0 0 0 0 0 0 0 0 0 0 0 0 0 0 0 0 0 0 0 0 0 0 0 0 0 0 0 0 0 0 0 0 0
0 0 0 0 0 0 0 0 0 0 0 0 0 0 0 0 0 0 0 0 0 0 0 0 0 0 0 0 0 0 0 0 0 0 0 0 0 0 0 0 0 0 0 0
0 0 0 0 0 0 0 0 0 0 0 0 0 0 0 0 0 0 0 0 0 0 0 0 0 0 0 0 0 0 0 0 0 0 0 0 0 0 0 0 0 0 0 0
0 0 0 0 0 0 0 0 0 0 0 0 0 0 0 0 0 0 0 0 0 0 0 0 0 0 0 0 0 0 0 0 0 0 0 0 0 0 0 0 0 0 0 0
0 0 0 0 0 0 0 0 0 0 0 0 0 0 0 0 0 0 0 0 0 0 0 0 0 0 0 0 0 0 0 0 0 0 0 0 0 0 0 0 0 0 0 0
0 0 0 0 0 0 0 0 0 0 0 0 0 0 0 0 0 0 0 0 0 0 0 0 0 0 0 0 0 0 0 0 0 0 0 0 0 0 0 0 0 0 0 0
0 0 0 0 0 0 0 0 0 0 0 0 0 0 0 0 0 0 0 0 0 0 0 0 0 0 0 0 0 0 0 0 0 0 0 0 0 0 0 0 0 0 0 0
0 0 0 0 0 0 0 0 0 0 0 0 0 0 0 0 0 0 0 0 0 0 0 0 0 0 0 0 0 0 0 0 0 0 0 0 0 0 0 0 0 0 0 0
0 0 0 0 0 0 0 0 0 0 0 0 0 0 0 0 0 0 0 0 0 0 0 0 0 0 0 0 0 0 0 0 0 0 0 0 0 0 0 0 0 0 0 0
0 0 0 0 0 0 0 0 0 0 0 0 0 0 0 0 0 0 0 0 0 0 0 0 0 0 0 0 0 0 0 0 0 0 0 0 0 0 0 0 0 0 0 0
0 0 0 0 0 0 0 0 0 0 0 0 0 0 0 0 0 0 0 0 0 0 0 0 0 0 0 0 0 0 0 0 0 0 0 0 0 0 0 0 0 0 0 0
0 0 0 0 0 0 0 0 0 0 0 0 0 0 0 0 0 0 0 0 0 0 0 0 0 0 0 0 0 0 0 0 0 0 0 0 0 0 0 0 0 0 0 0
0 0 0 0 0 0 0 0 0 0 0 0 0 0 0 0 0 0 0 0 0 0 0 0 0 0 0 0 0 0 0 0 0 0 0 0 0 0 0 0 0 0 0 0
0 0 0 0 0 0 0 0 0 0 0 0 0 0 0 0 0 0 0 0 0 0 0 0 0 0 0 0 0 0 0 0 0 0 0 0 0 0 0 0 0 0 0 0
0 0 0 0 0 0 0 0 0 0 0 0 0 0 0 0 0 0 0 0 0 0 0 0 0 0 0 0 0 0 0 0 0 0 0 0 0 0 0 0 0 0 0 0
0 0 0 0 0 0 0 0 0 0 0 0 0 0 0 0 0 0 0 0 0 0 0 0 0 0 0 0 0 0 0 0 0 0 0 0 0 0 1 0 0 0 0 0
0 0 0 0 0 0 0 0 0 0 0 0 0 0 0 0 0 0 0 0 0 0 0 0 0 0 0 0 0 0 0 0 0 0 0 0 0 0 0 0 0 0 0 0
0 0 0 0 0 0 0 0 0 0 0 0 0 0 0 0 0 0 0 0 0 0 0 0 0 0 0 0 0 0 0 0 0 0 0 0 0 0 0 0 0 0 0 0
0 0 0 0 0 0 0 0 0 0 0 0 0 0 0 0 0 0 0 0 0 0 0 0 0 0 0 0 0 0 0 0 0 0 0 0 0 0 0 0 0 0 0 0
0 0 0 0 0 0 0 0 0 0 0 0 0 0 0 0 0 0 0 0 0 0 0 0 0 0 0 0 0 0 0 0 0 0 0 0 0 0 0 0 0 0 0 0
0 0 0 0 0 0 0 0 0 0 0 0 0 0 0 0 0 0 0 0 0 0 0 0 0 0 0 0 0 0 0 0 0 0 0 0 0 0 0 0 0 0 0 0
0 0 0 0 0 0 0 0 0 0 0 0 0 0 0 0 0 0 0 0 0 0 0 0 0 0 0 0 0 0 0 0 0 0 0 0 0 0 0 0 0 0 0 0
0 0 0 0 0 0 0 0 0 0 0 0 0 0 0 0 0 0 0 0 0 0 0 0 0 0 0 0 0 0 0 0 0 0 0 0 0 0 0 0 0 0 0 0
Wind_Speed
4 4 2 2 4 3 2 5 6 6 4 6 6 4 4 3 3 2 1 1 4 6 7 7 7 8 8 8 8 8 8 8 8 7 6 5 5 4 4 3 3 2 2 1
5 5 4 4 6 4 2 1 2 1 3 5 3 3 5 5 4 2 3 3 4 4 5 7 8 8 8 8 8 8 9 9 8 7 6 6 6 5 4 3 2 2 2 2
4 6 4 4 4 1 2 2 0 0 4 4 4 5 5 5 5 5 4 4 4 5 6 8 9 9 9 10 8 8 9 9 8 8 7 7 6 5 5 4 3 2 2 2
1 4 1 5 2 2 5 5 5 3 3 4 1 1 3 5 5 6 7 6 5 5 5 6 6 6 6 6 8 9 9 9 8 8 8 7 6 6 5 4 4 3 3 3
2 1 4 5 4 2 2 4 6 5 6 7 5 4 6 8 7 6 6 6 5 5 4 4 4 5 5 6 7 9 9 9 9 9 8 8 7 7 5 4 4 3 3 3
3 2 4 5 7 4 6 3 6 5 6 7 8 6 6 10 9 9 9 7 6 5 3 3 3 2 5 6 7 9 10 10 9 9 10 10 9 7 5 4 5 4 3 3
3 4 5 5 7 5 4 3 4 4 4 5 3 2 7 9 9 8 8 8 7 5 4 4 3 2 4 5 8 9 7 8 8 9 10 9 8 6 6 5 5 4 4 3
2 2 5 5 4 3 3 2 1 3 3 4 4 5 7 8 9 10 10 9 7 5 5 5 3 2 4 6 6 5 5 7 8 9 9 8 8 7 6 6 6 5 4 2
4 4 2 3 2 0 2 1 1 2 3 3 4 6 7 8 8 9 9 9 8 6 6 6 4 3 5 6 3 3 5 7 7 8 7 7 8 8 6 6 6 5 4 4
1 2 2 3 3 2 2 1 2 2 3 4 4 6 7 7 8 9 9 8 8 7 7 7 6 6 5 4 3 3 5 6 6 7 7 6 6 7 7 7 7 6 6 5
2 4 2 2 2 2 2 2 3 3 3 4 5 5 6 7 8 8 8 8 8 7 7 8 7 7 5 3 3 4 4 5 5 6 7 6 5 5 7 7 9 9 7 7
6 5 3 4 3 1 2 2 3 4 4 4 4 5 6 6 7 7 8 8 9 9 9 9 8 7 6 4 4 4 4 4 4 5 5 6 5 3 1 4 8 11 11 10
4 3 3 3 2 1 1 2 3 3 3 4 4 4 5 6 7 8 8 9 10 10 10 9 8 8 7 5 4 5 5 5 4 5 6 7 7 7 5 2 3 7 11 13
2 1 1 2 2 1 1 2 2 3 3 4 4 5 6 6 8 9 9 10 10 11 11 9 9 9 7 6 6 6 5 6 6 5 7 8 8 8 8 8 6 3 5 10
2 2 3 2 1 1 1 2 3 4 5 5 5 6 7 8 9 10 10 10 10 10 11 10 10 10 7 6 7 7 6 5 5 5 5 7 7 7 7 8 7 5 3 5
2 1 1 0 1 2 2 2 3 4 5 6 6 7 8 8 9 9 10 10 10 11 12 11 11 11 8 7 7 7 6 9 7 5 5 6 7 8 8 8 8 8 8 7
2 2 2 2 2 3 3 4 4 5 5 6 7 8 9 9 9 10 10 10 10 11 11 11 12 11 9 8 8 6 6 7 9 6 6 7 8 9 9 9 9 9 8 9
5 5 5 4 4 4 4 5 5 6 6 7 8 8 9 9 10 12 12 11 11 12 11 10 10 11 10 9 7 6 6 6 6 7 7 7 8 9 9 10 10 10 7 8
4 4 4 4 4 4 4 6 6 7 7 7 8 9 9 10 10 11 11 11 11 13 12 11 16 12 10 10 10 6 6 7 7 6 7 9 9 8 9 10 10 9 9 9
3 3 3 4 4 4 5 6 7 7 8 8 8 9 10 10 10 10 10 10 9 9 11 14 13 10 10 10 11 6 6 7 8 7 7 7 8 8 9 10 10 10 10 9
4 4 4 4 5 6 6 7 7 8 9 8 9 10 10 10 10 9 9 10 10 10 11 17 11 9 8 10 11 6 6 6 7 7 7 7 7 8 8 9 10 10 10 9
5 5 6 6 6 7 7 7 7 9 9 9 10 10 10 10 10 9 9 8 9 14 11 8 8 12 14 14 6 6 6 6 6 6 6 6 7 7 8 8 9 9 9 9
6 6 6 7 7 8 8 7 8 8 9 10 10 10 9 9 7 7 9 8 7 14 11 8 13 19 20 10 6 6 6 6 6 6 6 6 6 7 7 8 8 8 9 9
6 6 7 6 6 6 8 9 8 8 9 9 9 9 8 7 7 7 7 13 16 16 9 11 18 20 17 6 5 5 5 5 5 5 5 5 5 5 6 7 7 7 8 10
6 6 6 6 6 6 8 9 8 8 8 7 9 9 7 6 7 8 7 9 13 14 9 12 18 17 9 5 5 4 4 4 4 3 4 5 5 5 6 6 7 8 8 8
6 6 6 7 6 6 6 6 6 6 6 7 7 7 7 6 7 7 7 8 10 13 9 7 8 9 5 4 5 4 3 3 3 3 3 4 5 5 5 6 9 8 8 8
7 6 5 5 6 6 6 6 6 7 7 7 7 7 7 7 6 7 8 7 7 7 6 6 5 5 4 4 4 4 3 2 2 2 3 3 4 5 6 7 7 7 8 8
Wind_Direction
248 262 272 281 295 286 216 204 199 234 244 282 298 292 301 327 342 6 334 243 216 217 217 213 209 208 204 201 196 189 183 189 200 201 196 195 197 202 202 198 197 191 182 196
332 329 339 331 316 311 287 266 211 242 302 290 302 8 17 7 3 345 291 263 247 235 226 219 214 210 206 204 197 186 187 196 197 191 188 190 195 192 186 191 192 170 175 182
301 314 7 333 305 344 47 2 139 193 282 316 14 24 25 17 11 345 313 294 272 248 234 227 218 208 207 205 193 187 193 196 192 187 187 192 190 182 186 191 186 180 184 175
276 7 305 253 298 98 86 33 29 38 348 352 352 26 38 23 5 347 335 317 299 285 267 251 227 213 208 193 187 191 195 197 194 188 190 188 182 187 192 185 184 188 188 185
130 223 278 299 321 306 118 36 0 15 8 1 351 17 6 359 351 336 325 312 291 278 270 261 244 219 193 191 192 194 198 199 196 190 188 184 187 192 188 178 184 190 187 184
137 177 242 272 308 318 97 42 340 12 18 9 26 24 324 331 340 342 340 337 327 321 323 307 278 224 192 198 195 205 208 204 196 189 187 189 192 190 182 176 184 182 182 183
188 217 256 294 317 29 80 256 313 10 21 23 29 266 287 320 337 341 339 338 339 338 324 295 294 221 208 211 215 217 209 199 192 189 190 190 187 182 175 174 169 173 177 185
147 196 258 327 24 72 212 251 340 17 14 10 343 328 334 341 341 340 342 341 341 335 321 319 321 248 230 231 235 220 198 196 194 192 192 187 179 181 175 169 169 176 173 179
186 210 256 4 65 101 134 91 354 359 348 357 350 339 336 336 336 335 333 331 332 327 319 320 316 283 247 253 245 213 203 203 202 194 192 181 179 180 175 172 173 180 177 183
353 286 341 14 31 32 48 47 360 356 352 0 347 338 337 335 334 331 329 325 327 325 319 312 310 300 272 267 230 208 214 214 202 191 188 184 182 180 179 180 181 183 184 185
273 273 317 353 1 3 10 24 17 3 358 354 350 340 335 332 329 327 324 322 323 318 306 301 304 301 298 281 235 227 225 218 207 196 187 184 185 188 188 194 188 184 188 181
233 238 220 260 283 309 18 6 359 3 359 353 349 334 333 326 320 321 322 321 321 319 310 303 302 299 296 275 244 229 231 222 212 201 188 178 170 158 175 187 192 189 180 174
220 236 215 239 270 313 11 351 357 359 342 332 329 326 326 319 317 319 320 320 316 311 306 301 299 294 292 273 256 242 236 228 218 205 193 184 178 174 169 136 149 175 179 178
237 219 258 252 251 274 328 343 349 343 332 322 318 320 321 317 315 317 314 311 308 309 309 302 295 290 287 271 258 252 247 231 220 213 204 194 189 185 179 173 174 181 187 183
254 208 203 218 241 329 336 347 351 334 324 321 317 317 317 315 311 308 306 307 309 309 310 309 302 297 294 273 258 252 245 238 227 218 213 202 190 182 181 181 178 169 161 178
205 128 132 141 291 307 323 326 317 305 304 306 309 308 305 301 299 301 304 307 309 307 306 304 300 298 295 276 264 256 244 243 235 219 210 204 192 185 184 184 181 179 182 179
175 219 235 256 263 275 276 273 273 280 289 296 298 301 303 304 304 304 305 304 298 294 294 294 295 299 293 276 262 259 251 240 233 225 212 206 199 193 189 186 187 188 190 184
196 208 214 218 234 259 275 277 280 283 285 287 296 302 302 300 298 298 300 303 304 302 297 291 293 300 294 282 270 260 248 238 230 226 218 212 206 198 190 189 190 187 180 182
201 209 221 234 245 253 264 273 278 279 283 288 294 296 293 292 292 293 297 301 303 302 301 300 303 305 294 285 284 264 248 238 236 231 221 214 208 200 191 188 188 185 179 176
223 225 233 249 258 262 271 277 281 284 284 285 289 293 295 294 293 293 295 293 286 283 292 300 301 296 291 285 286 269 250 238 234 230 220 212 205 201 193 187 184 182 180 179
236 240 244 254 265 270 270 274 281 284 285 284 284 286 285 287 289 291 294 295 293 292 299 304 302 294 293 290 287 273 255 241 233 223 214 209 203 199 194 187 184 181 179 177
246 245 252 260 267 274 276 274 274 279 282 283 283 283 285 289 291 289 282 278 287 300 303 294 294 296 301 300 279 269 257 244 236 223 211 202 197 194 191 186 183 179 175 172
252 252 256 259 261 267 277 277 274 276 276 278 282 282 280 281 282 285 291 288 290 300 304 293 299 305 306 301 275 265 258 246 231 219 209 198 192 189 186 181 179 171 167 165
260 261 260 260 263 270 275 276 276 275 274 276 276 274 275 283 285 275 272 291 299 302 298 297 304 307 308 298 279 265 257 248 234 219 205 194 186 182 178 171 168 163 160 158
257 259 262 264 265 266 268 274 281 282 282 282 280 278 275 266 268 280 285 286 293 301 299 302 309 309 305 293 287 276 263 250 235 215 199 189 181 175 171 165 161 158 157 158
264 263 259 253 253 260 266 269 272 276 279 282 281 278 279 277 276 280 284 285 288 298 301 298 301 303 298 293 293 287 276 258 240 216 193 182 172 166 162 160 156 154 153 152
265 265 265 269 267 260 261 262 266 271 273 272 275 278 280 282 284 286 286 287 290 294 296 297 300 300 300 299 299 299 297 281 232 193 179 171 162 158 155 152 149 146 145 146